When you browse on this site, cookies collect data to enhance your experience and personalize the content and advertising you see.
Visit our Privacy Policy to learn more. By continuing to use the site, you agree to this use of cookies and data.
  • Em Portugal
  • Lista de países
  • Para 7 dias
  • Temperatura da água
  • Mapas de satélite
  • Mapa do tempo
  • Widgets de tempo
  • user-avatar
    Iniciar Sessão

    Previsão horária em Beleck

    Hoje, 17 Janeiro, Quinta-feira

    Tempo Temperatura Precipitação Vento Pressão Humidade
    00:00 +9°C° 0 mm 12 m/s 761 mmHg 51%
    01:00 +9°C° 0 mm 12 m/s 761 mmHg 51%
    02:00 +9°C° 0 mm 15 m/s 761 mmHg 52%
    03:00 +9°C° 0 mm 14 m/s 762 mmHg 53%
    04:00 +9°C° 0 mm 13 m/s 762 mmHg 53%
    05:00 +10°C° 0 mm 12 m/s 762 mmHg 54%
    06:00 +11°C° 0 mm 11 m/s 763 mmHg 55%
    07:00 +9°C° 0 mm 11 m/s 763 mmHg 56%
    08:00 +9°C° 0 mm 11 m/s 764 mmHg 57%
    09:00 +11°C° 0 mm 10 m/s 764 mmHg 55%
    10:00 +11°C° 0 mm 10 m/s 764 mmHg 54%
    11:00 +12°C° 0 mm 10 m/s 764 mmHg 53%
    12:00 +12°C° 0 mm 9 m/s 764 mmHg 50%
    13:00 +13°C° 0 mm 8 m/s 764 mmHg 47%
    14:00 +15°C° 0 mm 7 m/s 763 mmHg 44%
    15:00 +15°C° 0 mm 6 m/s 764 mmHg 43%
    16:00 +15°C° 0 mm 5 m/s 764 mmHg 42%
    17:00 +15°C° 0 mm 4 m/s 764 mmHg 40%
    18:00 +15°C° 0 mm 4 m/s 764 mmHg 42%
    19:00 +14°C° 0 mm 4 m/s 765 mmHg 44%
    20:00 +14°C° 0 mm 3 m/s 765 mmHg 45%
    21:00 +14°C° 0 mm 3 m/s 765 mmHg 47%
    22:00 +13°C° 0 mm 3 m/s 765 mmHg 49%
    23:00 +13°C° 0 mm 3 m/s 765 mmHg 50%

    Amanhã, 18 Janeiro, Sexta-feira

    Tempo Temperatura Precipitação Vento Pressão Humidade
    00:00 +13°C° 0 mm 3 m/s 765 mmHg 51%
    01:00 +13°C° 0 mm 3 m/s 765 mmHg 51%
    02:00 +12°C° 0 mm 3 m/s 765 mmHg 51%
    03:00 +12°C° 0 mm 3 m/s 765 mmHg 51%
    04:00 +12°C° 0 mm 3 m/s 765 mmHg 51%
    05:00 +12°C° 0 mm 3 m/s 765 mmHg 51%
    06:00 +12°C° 0 mm 3 m/s 765 mmHg 51%
    07:00 +12°C° 0 mm 3 m/s 765 mmHg 50%
    08:00 +13°C° 0 mm 2 m/s 765 mmHg 50%
    09:00 +13°C° 0 mm 2 m/s 765 mmHg 49%
    10:00 +14°C° 0 mm 2 m/s 765 mmHg 49%
    11:00 +14°C° 0 mm 2 m/s 765 mmHg 48%
    12:00 +14°C° 0 mm 2 m/s 765 mmHg 49%
    13:00 +14°C° 0 mm 2 m/s 765 mmHg 50%
    14:00 +15°C° 0 mm 2 m/s 764 mmHg 51%
    15:00 +15°C° 0 mm 2 m/s 764 mmHg 51%
    16:00 +15°C° 0 mm 2 m/s 765 mmHg 52%
    17:00 +15°C° 0 mm 1 m/s 765 mmHg 53%
    18:00 +15°C° 0 mm 2 m/s 765 mmHg 55%
    19:00 +15°C° 0 mm 2 m/s 765 mmHg 57%
    20:00 +14°C° 0 mm 3 m/s 766 mmHg 59%
    21:00 +14°C° 0.1 mm 3 m/s 766 mmHg 61%
    22:00 +14°C° 0.1 mm 3 m/s 766 mmHg 63%
    23:00 +14°C° 0.1 mm 4 m/s 766 mmHg 64%

    Depois de amanhã, 19 Janeiro, Sábado

    Tempo Temperatura Precipitação Vento Pressão Humidade
    00:00 +13°C° 0.2 mm 4 m/s 766 mmHg 65%
    01:00 +13°C° 0.2 mm 4 m/s 766 mmHg 66%
    02:00 +13°C° 0.2 mm 4 m/s 766 mmHg 67%
    03:00 +13°C° 0.1 mm 4 m/s 766 mmHg 68%
    04:00 +13°C° 0.1 mm 4 m/s 766 mmHg 68%
    05:00 +13°C° 0.1 mm 4 m/s 765 mmHg 69%
    06:00 +13°C° 0.1 mm 4 m/s 766 mmHg 69%
    07:00 +13°C° 0.1 mm 4 m/s 766 mmHg 69%
    08:00 +13°C° 0.1 mm 4 m/s 766 mmHg 69%
    09:00 +13°C° 0.1 mm 4 m/s 766 mmHg 69%
    10:00 +13°C° 0.1 mm 4 m/s 766 mmHg 69%
    11:00 +13°C° 0.1 mm 4 m/s 766 mmHg 69%
    12:00 +13°C° 0 mm 4 m/s 766 mmHg 70%
    13:00 +13°C° 0 mm 4 m/s 765 mmHg 70%
    14:00 +13°C° 0 mm 4 m/s 765 mmHg 70%
    15:00 +13°C° 0.1 mm 5 m/s 765 mmHg 71%
    16:00 +14°C° 0.1 mm 5 m/s 765 mmHg 71%
    17:00 +14°C° 0.1 mm 5 m/s 765 mmHg 72%
    18:00 +14°C° 0.4 mm 5 m/s 765 mmHg 73%
    19:00 +14°C° 0.4 mm 5 m/s 765 mmHg 74%
    20:00 +14°C° 0.4 mm 5 m/s 765 mmHg 74%
    21:00 +14°C° 0.8 mm 5 m/s 765 mmHg 75%
    22:00 +14°C° 0.8 mm 5 m/s 765 mmHg 76%
    23:00 +14°C° 0.8 mm 6 m/s 766 mmHg 76%

    20 Janeiro, Domingo

    Tempo Temperatura Precipitação Vento Pressão Humidade
    00:00 +14°C° 0.5 mm 6 m/s 765 mmHg 76%
    01:00 +14°C° 0.5 mm 6 m/s 765 mmHg 76%
    02:00 +13°C° 0.5 mm 6 m/s 765 mmHg 75%
    03:00 +13°C° 0.4 mm 5 m/s 765 mmHg 75%
    04:00 +13°C° 0.4 mm 5 m/s 765 mmHg 74%
    05:00 +13°C° 0.4 mm 5 m/s 765 mmHg 74%
    06:00 +13°C° 0.5 mm 4 m/s 765 mmHg 74%
    07:00 +13°C° 0.5 mm 4 m/s 765 mmHg 74%
    08:00 +13°C° 0.5 mm 4 m/s 765 mmHg 74%
    09:00 +14°C° 0.7 mm 4 m/s 765 mmHg 74%
    10:00 +14°C° 0.7 mm 4 m/s 765 mmHg 74%
    11:00 +14°C° 0.7 mm 4 m/s 765 mmHg 74%
    12:00 +14°C° 0.7 mm 4 m/s 765 mmHg 74%
    13:00 +14°C° 0.7 mm 3 m/s 764 mmHg 74%
    14:00 +14°C° 0.7 mm 3 m/s 764 mmHg 74%
    15:00 +14°C° 1 mm 3 m/s 764 mmHg 73%
    16:00 +14°C° 1 mm 3 m/s 764 mmHg 72%
    17:00 +14°C° 1 mm 3 m/s 764 mmHg 72%
    18:00 +14°C° 1.2 mm 3 m/s 764 mmHg 72%
    19:00 +14°C° 1.2 mm 3 m/s 764 mmHg 73%
    20:00 +14°C° 1.2 mm 2 m/s 765 mmHg 73%
    21:00 +13°C° 1 mm 3 m/s 765 mmHg 74%
    22:00 +13°C° 1 mm 3 m/s 765 mmHg 74%
    23:00 +13°C° 1 mm 3 m/s 765 mmHg 74%

    21 Janeiro, Segunda-feira

    Tempo Temperatura Precipitação Vento Pressão Humidade
    00:00 +13°C° 0.8 mm 3 m/s 764 mmHg 74%
    01:00 +13°C° 0.8 mm 4 m/s 764 mmHg 74%
    02:00 +13°C° 0.8 mm 4 m/s 764 mmHg 74%
    03:00 +13°C° 0.8 mm 4 m/s 764 mmHg 74%
    04:00 +13°C° 0.8 mm 4 m/s 764 mmHg 74%
    05:00 +13°C° 0.8 mm 4 m/s 764 mmHg 74%
    06:00 +13°C° 2 mm 4 m/s 764 mmHg 77%
    07:00 +13°C° 2 mm 4 m/s 764 mmHg 79%
    08:00 +13°C° 2 mm 3 m/s 764 mmHg 82%
    09:00 +12°C° 1.7 mm 4 m/s 764 mmHg 82%
    10:00 +12°C° 1.7 mm 4 m/s 764 mmHg 82%
    11:00 +12°C° 1.7 mm 4 m/s 765 mmHg 83%
    12:00 +13°C° 0.6 mm 4 m/s 764 mmHg 82%
    13:00 +13°C° 0.6 mm 4 m/s 764 mmHg 81%
    14:00 +13°C° 0.6 mm 4 m/s 764 mmHg 81%
    15:00 +13°C° 0.5 mm 4 m/s 764 mmHg 80%
    16:00 +13°C° 0.5 mm 5 m/s 764 mmHg 79%
    17:00 +14°C° 0.5 mm 5 m/s 764 mmHg 78%
    18:00 +14°C° 0.3 mm 5 m/s 764 mmHg 77%
    19:00 +14°C° 0.3 mm 5 m/s 764 mmHg 76%
    20:00 +14°C° 0.3 mm 5 m/s 765 mmHg 75%
    21:00 +14°C° 0.4 mm 5 m/s 765 mmHg 76%
    22:00 +14°C° 0.4 mm 4 m/s 765 mmHg 76%
    23:00 +14°C° 0.4 mm 4 m/s 765 mmHg 76%

    22 Janeiro, Terça-feira

    Tempo Temperatura Precipitação Vento Pressão Humidade
    00:00 +14°C° 0.6 mm 4 m/s 765 mmHg 76%
    01:00 +13°C° 0.6 mm 4 m/s 765 mmHg 77%
    02:00 +13°C° 0.6 mm 4 m/s 764 mmHg 77%
    03:00 +13°C° 0.7 mm 4 m/s 764 mmHg 78%
    04:00 +13°C° 0.7 mm 4 m/s 764 mmHg 78%
    05:00 +13°C° 0.7 mm 4 m/s 764 mmHg 78%
    06:00 +13°C° 0.5 mm 4 m/s 764 mmHg 77%
    07:00 +13°C° 0.5 mm 4 m/s 764 mmHg 76%
    08:00 +13°C° 0.5 mm 4 m/s 764 mmHg 75%
    09:00 +14°C° 0.6 mm 4 m/s 764 mmHg 75%
    10:00 +14°C° 0.6 mm 4 m/s 764 mmHg 74%
    11:00 +14°C° 0.6 mm 4 m/s 764 mmHg 74%
    12:00 +14°C° 0.7 mm 4 m/s 763 mmHg 73%
    13:00 +14°C° 0.7 mm 4 m/s 763 mmHg 73%
    14:00 +14°C° 0.7 mm 4 m/s 762 mmHg 73%
    15:00 +14°C° 0.6 mm 4 m/s 762 mmHg 73%
    16:00 +14°C° 0.6 mm 4 m/s 762 mmHg 73%
    17:00 +15°C° 0.6 mm 5 m/s 762 mmHg 72%
    18:00 +15°C° 0.6 mm 5 m/s 763 mmHg 73%
    19:00 +14°C° 0.6 mm 5 m/s 763 mmHg 73%
    20:00 +14°C° 0.6 mm 4 m/s 763 mmHg 73%
    21:00 +14°C° 0.8 mm 4 m/s 763 mmHg 74%
    22:00 +14°C° 0.8 mm 4 m/s 763 mmHg 75%
    23:00 +14°C° 0.8 mm 4 m/s 763 mmHg 75%
    Mostrar mais